Location: Gdynia
(54.5193°N, 18.5395°E)
Time: 04:55:55
(UTC+01:00)

ISS - Visible Passes

Search period start: 24 November 2017 00:00
Search period end: 04 December 2017 00:00
Orbit: 402 x 407 km, 51.6° (Epoch: 24 November)

Date Brightness Start Highest point End Pass type
(mag) Time Alt. Az. Time Alt. Az. Time Alt. Az.
29 Nov -1.3 17:27:12 10° SSE 17:27:45 11° SSE 17:27:45 11° SSE visible
30 Nov -1.6 18:08:53 10° SSW 18:10:15 19° SSW 18:10:15 19° SSW visible
01 Dec -1.9 17:17:07 10° SSW 17:19:26 18° SSE 17:20:01 17° SE visible
01 Dec -0.6 18:52:16 10° WSW 18:52:40 13° WSW 18:52:40 13° WSW visible
02 Dec -1.4 16:25:48 10° S 16:27:17 13° SE 16:28:47 10° ESE visible
02 Dec -2.4 18:00:04 10° SW 18:02:23 31° SSW 18:02:23 31° SSW visible
03 Dec -2.4 17:07:58 10° SW 17:10:49 27° SSE 17:12:04 21° ESE visible
03 Dec -1.0 18:43:43 10° WSW 18:44:42 18° WSW 18:44:42 18° WSW visible
